Location: Brompton
(51.4000°N, 0.5333°E)
Time: 17:36:16
(UTC+00:00)

Cosmos 1536 - Pass Details

Date: 03 October 2021
Orbit: 539 x 557 km, 82.5° (Epoch: 28 October)

Event Time Altitude Azimuth Distance (km) Brightness Sun altitude
Rises 01:44:20 0° 2° (N) 2,712 7.0 -36.7°
Reaches altitude 10° 01:47:15 10° 25° (NNE) 1,814 6.2 -36.4°
Enters shadow 01:47:47 12° 32° (NNE) 1,694 6.0 -36.3°
